User: anonymous   Login
Location: Trois-Rivi�res
(46.3500°N, 72.5500°W)
Time: 14:51:05
(UTC-05:00)
Language:

SJ-11-01 - Orbit

View from above orbital plane
View from above orbital plane
View from above satellite
View from above satellite

Ground track
Ground track

The orbit data is extracted from the following two-line orbital elements,

1 36088U 09061A   14327.43839549  .00001010  00000-0  21855-3 0  6109
2 36088 098.0169 010.7794 0010089 308.7373 051.2929 14.60239711267970
Epoch (UTC): 23 November 2014 10:31:17
Eccentricity: 0.0010089
inclination: 98.0169°
perigee height: 685 km
apogee height: 699 km
right ascension of ascending node: 10.7794°
argument of perigee: 308.7373°
revolutions per day: 14.60239711
mean anomaly at epoch: 51.2929°
orbit number at epoch: 26797

The dashed part of the orbit path shows where the satellite is in the earth's shadow,  

DLR